Tracking 19563 objects as of 20-Mar-2019
HD Live streaming from Space Station
objects crossing your sky now

FENGYUN 1C DEB

Track FENGYUN 1C DEB now!
10-day predictions


NORAD ID: 31771
Int'l Code: 1999-025CFW
Perigee: 754.0 km
Apogee: 788.3 km
Inclination: 102.8 °
Period: 100.1 minutes
Semi major axis: 7142 km
RCS: 0.0073 m2 (small)
Launch date: May 10, 1999
Source: People's Republic of China (PRC)
Launch site: Taiyaun Space Center, China (TSC)

Note: This is SATELLITE DEBRIS
aabbcc
Your satellite tracking list
Your tracking list is empty




NASA's NSSDC Master Catalog

Two Line Element Set (TLE):
1 31771U 99025CFW 19078.46729531 +.00001635 +00000-0 +56258-3 0  9990
2 31771 102.8069 321.5653 0024046 238.2432 121.6395 14.38327868616169
Source of the keplerian elements: AFSPC